Location: ?????
(30.2541°N, 31.0910°E)
Time: 20:18:40
(UTC+00:00)

Gbstr 26 Del rocket - Visible Passes

Search period start: 30 March 2023 00:00
Search period end: 09 April 2023 00:00
Orbit: 491 x 1254 km, 51.8° (Epoch: 30 March)

Date Brightness Start Highest point End Pass type
(mag) Time Alt. Az. Time Alt. Az. Time Alt. Az.
30 Mar 5.8 03:00:48 10° SSE 03:02:41 13° SE 03:04:28 10° ESE visible
31 Mar 5.5 02:53:09 10° S 02:56:07 17° SE 02:58:49 10° E visible
01 Apr 5.1 02:45:54 10° S 02:49:32 23° SE 02:52:47 10° ENE visible
02 Apr 4.6 02:38:51 10° SSW 02:42:59 31° SE 02:46:33 10° ENE visible
03 Apr 4.0 02:32:08 11° SSW 02:36:24 42° SE 02:40:13 10° ENE visible
04 Apr 3.4 02:26:33 18° SSW 02:29:49 58° SE 02:33:47 10° NE visible
05 Apr 3.0 02:20:49 28° SW 02:23:14 79° SE 02:27:16 10° NE visible
06 Apr 2.9 02:14:56 38° SW 02:16:38 79° NW 02:20:42 10° NE visible
07 Apr 3.1 02:08:56 45° W 02:10:02 60° NW 02:14:05 10° NE visible
08 Apr 3.5 02:02:50 43° WNW 02:03:26 46° NW 02:07:24 10° NNE visible
